Observations for Trim Patrick St
| Time | AQI | Temp °C | Hum % | Pres Pa | CO μg/m³ | H₂S μg/m³ | NO μg/m³ | NO₂ μg/m³ | O₃ μg/m³ | SO₂ μg/m³ | PM1 μg/m³ | PM2.5 μg/m³ | PM10 μg/m³ |
|---|---|---|---|---|---|---|---|---|---|---|---|---|---|
| Thursday 27 August 2026 | |||||||||||||
| 08:38 | 2 | 18.9 | 83 | 38,460 | 0.16 | 0.38 | 1.77 | 15.04 | 36.78 | 0 | 22.57 | 32.83 | 35.29 |
| 08:37 | 2 | 18.8 | 83 | 38,460 | 0.19 | 0.64 | 1.81 | 23.6 | 33.22 | 0 | 24.29 | 34.21 | 35.92 |
| 08:36 | 2 | 18.8 | 83 | 38,460 | 0.19 | 0.28 | 3.13 | 35.77 | 24.61 | 0 | 26 | 35.52 | 37.74 |
| 08:35 | 2 | 18.8 | 83 | 38,460 | 0.17 | 0 | 3.17 | 19.34 | 31.97 | 0 | 22.57 | 33.42 | 35.7 |
| 08:34 | 2 | 18.8 | 83 | 38,460 | 0.16 | 0 | 1.76 | 13.27 | 35.73 | 0 | 25.14 | 35.49 | 39 |
| 08:33 | 2 | 18.7 | 84 | 38,460 | 0.16 | 0 | 1.24 | 15.52 | 32.23 | 0 | 24.29 | 34.76 | 37.59 |
| 08:32 | 2 | 18.7 | 83 | 38,460 | 0.17 | 0.07 | 1.07 | 24.96 | 33.09 | 0 | 26 | 36.18 | 39.67 |
| 08:31 | 2 | 18.6 | 84 | 38,460 | 0.18 | 0 | 1.2 | 21.39 | 31.37 | 0 | 24.29 | 34.07 | 36.92 |
| 08:30 | 2 | 18.6 | 82 | 38,460 | 0.17 | 0 | 0.97 | 20.23 | 46.78 | 0 | 25.14 | 36.32 | 40.04 |
| 08:29 | 2 | 18.6 | 84 | 38,460 | 0.17 | 0 | 0.92 | 13.35 | 38.8 | 0 | 22.57 | 32.62 | 33.45 |
| 08:28 | 2 | 18.6 | 84 | 38,460 | 0.17 | 0 | 1.11 | 13.05 | 36.72 | 0 | 25.14 | 34.68 | 36.07 |
| 08:27 | 2 | 18.5 | 84 | 38,460 | 0.15 | 0 | 1.61 | 19.28 | 31.16 | 0 | 24.29 | 33.29 | 35.37 |
| 08:26 | 2 | 18.5 | 84 | 38,460 | 0.17 | 1.12 | 1.16 | 21.19 | 28.98 | 0 | 23.43 | 33.99 | 36.07 |
| 08:25 | 2 | 18.4 | 84 | 38,460 | 0.17 | 1.62 | 1.62 | 38.68 | 33.05 | 0 | 25.14 | 35.39 | 38.76 |
| 08:24 | 2 | 18.4 | 84 | 38,460 | 0.16 | 0.34 | 1.21 | 18.77 | 36.03 | 0 | 22.57 | 31.86 | 33.28 |
| 08:23 | 2 | 18.4 | 85 | 38,460 | 0.16 | 0 | 1.21 | 22.47 | 27.9 | 0 | 21.72 | 30.46 | 32.58 |
| 08:22 | 2 | 18.3 | 85 | 38,460 | 0.16 | 0 | 1.06 | 13.41 | 40.08 | 0 | 25.14 | 34.61 | 35.88 |
| 08:21 | 2 | 18.3 | 85 | 38,460 | 0.17 | 0.63 | 1.27 | 20.47 | 38.79 | 0 | 25.14 | 35.28 | 37.16 |
| 08:20 | 2 | 18.3 | 85 | 38,460 | 0.15 | 0.37 | 1.03 | 20.47 | 31.31 | 0 | 25.14 | 34.59 | 37.16 |
| 08:19 | 2 | 18.2 | 85 | 38,460 | 0.16 | 1.42 | 1.35 | 22.83 | 27.66 | 0 | 25.14 | 34.59 | 35.18 |